Location: A�t Lahcen
(32.8243°N, 5.4246°W)
Time: 01:29:13
(UTC+00:00)

CZ-2C R/B - Pass Details

Date: 27 January 2021
Orbit: 785 x 870 km, 98.2° (Epoch: 27 February)

Event Time Altitude Azimuth Distance (km) Brightness Sun altitude
Rises 06:31:07 0° 156° (SSE) 3,275 6.4 -10.5°
Reaches altitude 10° 06:33:26 10° 153° (SSE) 2,357 5.7 -10.0°
Maximum altitude 06:38:33 59° 74° (ENE) 924 3.3 -9.0°
Drops below altitude 10° 06:43:47 10° 356° (N) 2,417 4.9 -8.0°
Sets 06:46:11 0° 353° (N) 3,367 5.6 -7.5°
